| time (UTC) | temp C | wind direction | speed KPH | gust KPH | rain 1hr cm | rain 24hr cm | rain mn cm | humidity % | barometer mb |
| 20260903183052 | 26 | 102 | 0.0 | 0.0 | 0.05 | 0.05 | 0.05 | 76 | 1006.1 |
| 20260903181547 | 27 | 150 | 0.0 | 0.0 | 0.00 | 0.00 | 0.00 | 67 | 1006.2 |
| 20260903180045 | 27 | 103 | 0.0 | 0.0 | 0.00 | 0.00 | 0.00 | 64 | 1006.9 |
| 20260903174543 | 27 | 107 | 0.0 | 0.0 | 0.00 | 0.00 | 0.00 | 65 | 1006.8 |
| 20260903173041 | 28 | 165 | 0.0 | 0.0 | 0.00 | 0.00 | 0.00 | 64 | 1006.8 |
| 20260903171550 | 28 | 171 | 0.0 | 0.0 | 0.00 | 0.00 | 0.00 | 61 | 1007.1 |
| 20260903170043 | 28 | 91 | 0.0 | 0.0 | 0.00 | 0.00 | 0.00 | 63 | 1007.2 |
| 20260903164533 | 27 | 108 | 0.0 | 0.0 | 0.00 | 0.00 | 0.00 | 64 | 1007.5 |
| 20260903163037 | 27 | 131 | 0.0 | 0.0 | 0.00 | 0.00 | 0.00 | 66 | 1007.3 |
| 20260903161528 | 26 | 126 | 0.0 | 0.0 | 0.00 | 0.00 | 0.00 | 66 | 1007.5 |
| 20260903160024 | 27 | 117 | 0.0 | 0.0 | 0.00 | 0.00 | 0.00 | 65 | 1007.4 |
| 20260903154523 | 26 | 107 | 0.0 | 0.0 | 0.00 | 0.00 | 0.00 | 66 | 1007.5 |
| 20260903153020 | 26 | 109 | 0.0 | 0.0 | 0.00 | 0.00 | 0.00 | 68 | 1007.6 |
| 20260903151517 | 26 | 126 | 0.0 | 0.0 | 0.00 | 0.00 | 0.00 | 70 | 1007.6 |
| 20260903150020 | 26 | 142 | 0.0 | 0.0 | 0.00 | 0.00 | 0.00 | 68 | 1007.5 |
| 20260903144514 | 26 | 111 | 0.0 | 0.0 | 0.00 | 0.00 | 0.00 | 69 | 1007.5 |
| 20260903143011 | 25 | 139 | 0.0 | 0.0 | 0.00 | 0.00 | 0.00 | 71 | 1007.3 |
| 20260903141515 | 25 | 119 | 0.0 | 0.0 | 0.00 | 0.00 | 0.00 | 73 | 1007.6 |
| 20260903140006 | 25 | 76 | 0.0 | 0.0 | 0.00 | 0.00 | 0.00 | 75 | 1007.6 |
| 20260903134535 | 25 | 81 | 0.0 | 0.0 | 0.00 | 0.00 | 0.00 | 77 | 1007.7 |
| 20260903133034 | 24 | 136 | 0.0 | 0.0 | 0.00 | 0.00 | 0.00 | 81 | 1007.6 |
| 20260903131609 | 23 | 137 | 0.0 | 0.0 | 0.00 | 0.00 | 0.00 | 84 | 1007.8 |
| 20260903130100 | 23 | 144 | 0.0 | 0.0 | 0.00 | 0.00 | 0.00 | 85 | 1007.9 |
| 20260903124611 | 22 | 165 | 0.0 | 0.0 | 0.00 | 0.00 | 0.00 | 85 | 1007.3 |
| 20260903123056 | 22 | 169 | 0.0 | 0.0 | 0.00 | 0.00 | 0.00 | 86 | 1007.0 |
| 20260903121555 | 22 | 169 | 0.0 | 0.0 | 0.00 | 0.00 | 0.00 | 86 | 1006.9 |
| 20260903120101 | 22 | 115 | 0.0 | 0.0 | 0.00 | 0.00 | 0.00 | 87 | 1007.1 |
| 20260903114550 | 22 | 161 | 0.0 | 0.0 | 0.00 | 0.00 | 0.00 | 88 | 1007.4 |
| 20260903113056 | 22 | 175 | 0.0 | 0.0 | 0.00 | 0.00 | 0.00 | 89 | 1007.7 |
| 20260903111549 | 22 | 121 | 0.0 | 0.0 | 0.00 | 0.00 | 0.00 | 89 | 1007.6 |
| 20260903110049 | 22 | 178 | 0.0 | 0.0 | 0.00 | 0.00 | 0.00 | 89 | 1007.4 |
| 20260903104518 | 22 | 163 | 0.0 | 0.0 | 0.00 | 0.00 | 0.00 | 89 | 1007.9 |
| 20260903103017 | 22 | 138 | 0.0 | 0.0 | 0.00 | 0.00 | 0.00 | 88 | 1007.9 |
| 20260903101535 | 22 | 119 | 0.0 | 0.0 | 0.00 | 0.00 | 0.00 | 88 | 1007.6 |
| 20260903100013 | 22 | 103 | 0.0 | 0.0 | 0.00 | 0.00 | 0.00 | 88 | 1007.6 |
| 20260903094513 | 22 | 86 | 0.0 | 0.0 | 0.00 | 0.00 | 0.00 | 88 | 1007.8 |
| 20260903093013 | 22 | 100 | 0.0 | 0.0 | 0.00 | 0.00 | 0.00 | 88 | 1007.4 |
| 20260903091510 | 22 | 113 | 0.0 | 0.0 | 0.00 | 0.00 | 0.00 | 87 | 1007.4 |
| 20260903090010 | 22 | 113 | 0.0 | 0.0 | 0.00 | 0.00 | 0.00 | 87 | 1007.5 |
| 20260903084523 | 22 | 113 | 0.0 | 0.0 | 0.00 | 0.00 | 0.00 | 86 | 1007.5 |
| 20260903083017 | 22 | 101 | 0.0 | 0.0 | 0.00 | 0.00 | 0.00 | 86 | 1007.5 |
| 20260903081503 | 23 | 121 | 0.0 | 0.0 | 0.00 | 0.00 | 0.00 | 86 | 1007.8 |
| 20260903080002 | 22 | 123 | 0.0 | 0.0 | 0.00 | 0.00 | 0.00 | 86 | 1007.9 |
| 20260903074606 | 23 | 76 | 0.0 | 0.0 | 0.00 | 0.00 | 0.00 | 85 | 1008.0 |
| 20260903073059 | 23 | 76 | 0.0 | 0.0 | 0.00 | 0.00 | 0.00 | 85 | 1007.9 |
| 20260903071555 | 23 | 74 | 0.0 | 0.0 | 0.00 | 0.00 | 0.00 | 85 | 1008.0 |
| 20260903070053 | 23 | 68 | 0.0 | 0.0 | 0.00 | 0.03 | 0.00 | 84 | 1008.2 |
| 20260903064600 | 23 | 68 | 0.0 | 0.0 | 0.00 | 0.03 | 0.00 | 83 | 1008.4 |
| 20260903063051 | 23 | 68 | 0.0 | 0.0 | 0.00 | 0.03 | 0.00 | 82 | 1008.3 |
| 20260903061546 | 23 | 68 | 0.0 | 0.0 | 0.00 | 0.03 | 0.00 | 82 | 1008.4 |
| 20260903060047 | 23 | 88 | 0.0 | 0.0 | 0.00 | 0.03 | 0.00 | 82 | 1008.4 |
| 20260903054543 | 23 | 82 | 0.0 | 0.0 | 0.00 | 0.03 | 0.00 | 80 | 1008.5 |
| 20260903053053 | 23 | 48 | 0.0 | 0.0 | 0.00 | 0.03 | 0.00 | 79 | 1008.5 |
| 20260903051542 | 23 | 45 | 0.0 | 0.0 | 0.00 | 0.03 | 0.00 | 77 | 1008.6 |
| 20260903050137 | 23 | 45 | 0.0 | 0.0 | 0.00 | 0.03 | 0.03 | 76 | 1008.6 |
| 20260903044538 | 23 | 44 | 0.0 | 0.0 | 0.00 | 0.03 | 0.03 | 75 | 1008.7 |
| 20260903043036 | 23 | 44 | 0.0 | 0.0 | 0.00 | 0.03 | 0.03 | 74 | 1008.7 |
| 20260903041532 | 24 | 44 | 0.0 | 0.0 | 0.00 | 0.03 | 0.03 | 73 | 1008.7 |
| 20260903040039 | 24 | 44 | 0.0 | 0.0 | 0.00 | 0.03 | 0.03 | 72 | 1009.0 |
| 20260903034530 | 24 | 40 | 0.0 | 0.0 | 0.00 | 0.03 | 0.03 | 71 | 1008.7 |
| 20260903033030 | 25 | 55 | 0.0 | 0.0 | 0.00 | 0.03 | 0.03 | 70 | 1008.9 |
| 20260903031601 | 25 | 55 | 0.0 | 0.0 | 0.00 | 0.03 | 0.03 | 70 | 1008.8 |
| 20260903030059 | 25 | 54 | 0.0 | 0.0 | 0.00 | 0.03 | 0.03 | 70 | 1008.8 |
| 20260903024556 | 25 | 30 | 0.0 | 0.0 | 0.00 | 0.03 | 0.03 | 71 | 1008.8 |
| 20260903023056 | 25 | 25 | 0.0 | 0.0 | 0.00 | 0.03 | 0.03 | 73 | 1008.6 |
| 20260903021557 | 25 | 23 | 0.0 | 0.0 | 0.00 | 0.03 | 0.03 | 75 | 1008.7 |
| 20260903020055 | 25 | 11 | 0.0 | 0.0 | 0.00 | 0.03 | 0.03 | 76 | 1008.7 |
| 20260903014555 | 26 | 149 | 0.0 | 0.0 | 0.00 | 0.03 | 0.03 | 72 | 1008.5 |
| 20260903013052 | 26 | 149 | 0.0 | 0.0 | 0.00 | 0.03 | 0.03 | 70 | 1008.4 |
| 20260903011553 | 26 | 149 | 0.0 | 0.0 | 0.00 | 0.03 | 0.03 | 68 | 1008.4 |
| 20260903010051 | 27 | 149 | 0.0 | 0.0 | 0.00 | 0.03 | 0.03 | 65 | 1008.2 |
| 20260903004555 | 28 | 149 | 0.0 | 0.0 | 0.00 | 0.03 | 0.03 | 62 | 1008.0 |
| 20260903003048 | 28 | 149 | 0.0 | 0.0 | 0.00 | 0.03 | 0.03 | 60 | 1008.3 |
| 20260903001600 | 29 | 149 | 0.0 | 0.0 | 0.00 | 0.03 | 0.03 | 59 | 1008.1 |
| 20260903000045 | 29 | 149 | 0.0 | 0.0 | 0.00 | 0.03 | 0.03 | 57 | 1008.2 |
| 20260902234546 | 30 | 149 | 0.0 | 0.0 | 0.00 | 0.03 | 0.03 | 55 | 1008.2 |
| 20260902233043 | 30 | 149 | 0.0 | 0.0 | 0.00 | 0.03 | 0.03 | 56 | 1008.2 |
| 20260902231543 | 30 | 148 | 0.0 | 0.0 | 0.00 | 0.03 | 0.03 | 54 | 1008.2 |
| 20260902230041 | 30 | 150 | 0.0 | 0.0 | 0.00 | 0.03 | 0.03 | 54 | 1008.3 |
| 20260902224547 | 30 | 150 | 0.0 | 0.0 | 0.00 | 0.03 | 0.03 | 53 | 1008.3 |
| 20260902223035 | 30 | 150 | 0.0 | 0.0 | 0.00 | 0.03 | 0.03 | 55 | 1008.4 |
| 20260902221538 | 30 | 151 | 0.0 | 0.0 | 0.00 | 0.03 | 0.03 | 54 | 1008.4 |
| 20260902220039 | 30 | 150 | 0.0 | 0.0 | 0.00 | 0.03 | 0.03 | 55 | 1008.4 |
| 20260902214531 | 30 | 159 | 0.0 | 0.0 | 0.00 | 0.03 | 0.03 | 54 | 1008.5 |
| 20260902213026 | 30 | 159 | 0.0 | 0.0 | 0.00 | 0.03 | 0.03 | 54 | 1008.7 |
| 20260902211523 | 29 | 153 | 0.0 | 0.0 | 0.00 | 0.03 | 0.03 | 57 | 1008.9 |
| 20260902210023 | 29 | 148 | 0.0 | 0.0 | 0.00 | 0.03 | 0.03 | 56 | 1008.8 |
| 20260902204523 | 29 | 135 | 0.0 | 0.0 | 0.00 | 0.03 | 0.03 | 56 | 1008.7 |
| 20260902203050 | 28 | 157 | 0.0 | 0.0 | 0.00 | 0.03 | 0.03 | 57 | 1008.8 |
| 20260902201548 | 28 | 135 | 0.0 | 0.0 | 0.00 | 0.03 | 0.03 | 57 | 1009.0 |
| 20260902200042 | 28 | 131 | 0.0 | 0.0 | 0.00 | 0.03 | 0.03 | 58 | 1009.2 |
| 20260902194545 | 28 | 74 | 0.0 | 0.0 | 0.00 | 0.03 | 0.03 | 58 | 1009.4 |
| 20260902193040 | 27 | 146 | 0.0 | 0.0 | 0.00 | 0.03 | 0.03 | 59 | 1009.7 |
| 20260902191553 | 27 | 146 | 0.0 | 0.0 | 0.00 | 0.03 | 0.03 | 58 | 1009.9 |
| 20260902190051 | 27 | 137 | 0.0 | 0.0 | 0.00 | 0.03 | 0.03 | 59 | 1010.0 |
| 20260902184532 | 27 | 44 | 0.0 | 0.0 | 0.00 | 0.03 | 0.03 | 61 | 1009.9 |